QPF
0.02 0.02 0.01 0.01 0.00 0.00 0.00 0.00 0.00 0.00 0.00 0.00 0.01 0.01 0.01 0.01 0.02 0.02 0.02 0.01 0.01 0.02 0.02 0.02 0.02 0.03 0.05 0.05 0.06 0.05 0.04 0.03 0.03 0.05 0.05 0.05 0.05 0.03 0.02 0.03 0.04 0.03 0.03
0.01 0.01 0.02 0.01 0.00 0.00 0.00 0.00 0.00 0.00 0.00 0.00 0.00 0.00 0.00 0.01 0.01 0.02 0.02 0.01 0.00 0.01 0.01 0.01 0.01 0.01 0.04 0.06 0.06 0.05 0.05 0.04 0.03 0.05 0.07 0.06 0.06 0.04 0.02 0.03 0.03 0.03 0.03
0.01 0.01 0.01 0.00 0.00 0.00 0.00 0.00 0.00 0.00 0.00 0.00 0.01 0.00 0.00 0.00 0.01 0.01 0.01 0.01 0.00 0.00 0.01 0.01 0.01 0.02 0.02 0.03 0.04 0.03 0.04 0.05 0.04 0.05 0.07 0.06 0.05 0.04 0.03 0.03 0.04 0.04 0.04
0.01 0.01 0.01 0.00 0.00 0.00 0.00 0.00 0.00 0.00 0.01 0.01 0.00 0.00 0.00 0.00 0.00 0.01 0.01 0.01 0.00 0.00 0.01 0.01 0.01 0.02 0.03 0.05 0.05 0.03 0.04 0.06 0.05 0.05 0.05 0.05 0.04 0.03 0.02 0.02 0.03 0.04 0.04
0.00 0.00 0.01 0.01 0.00 0.00 0.00 0.00 0.01 0.00 0.00 0.00 0.00 0.00 0.00 0.00 0.00 0.01 0.01 0.01 0.01 0.01 0.02 0.02 0.02 0.02 0.04 0.05 0.06 0.08 0.07 0.06 0.05 0.03 0.02 0.02 0.03 0.02 0.03 0.03 0.03 0.03 0.03
0.00 0.00 0.01 0.01 0.00 0.00 0.00 0.00 0.00 0.00 0.00 0.00 0.00 0.00 0.01 0.00 0.00 0.01 0.01 0.01 0.01 0.01 0.01 0.01 0.02 0.03 0.04 0.05 0.04 0.07 0.11 0.11 0.11 0.07 0.04 0.04 0.03 0.04 0.04 0.03 0.03 0.04 0.04
0.00 0.00 0.01 0.02 0.00 0.00 0.00 0.00 0.00 0.00 0.00 0.00 0.00 0.00 0.00 0.01 0.01 0.01 0.01 0.01 0.01 0.01 0.01 0.02 0.02 0.02 0.04 0.05 0.05 0.09 0.08 0.07 0.07 0.05 0.06 0.07 0.07 0.07 0.06 0.06 0.06 0.07 0.07
0.01 0.01 0.01 0.02 0.01 0.01 0.00 0.00 0.00 0.00 0.00 0.00 0.00 0.01 0.01 0.02 0.01 0.01 0.01 0.01 0.00 0.00 0.01 0.02 0.02 0.02 0.03 0.04 0.05 0.07 0.06 0.05 0.02 0.01 0.01 0.01 0.02 0.03 0.04 0.05 0.05 0.06 0.07
0.01 0.01 0.01 0.01 0.01 0.01 0.01 0.00 0.00 0.00 0.00 0.01 0.01 0.01 0.01 0.02 0.01 0.01 0.01 0.01 0.01 0.01 0.01 0.02 0.02 0.02 0.03 0.04 0.05 0.06 0.05 0.03 0.02 0.02 0.02 0.02 0.04 0.05 0.05 0.05 0.05 0.05 0.05
0.01 0.01 0.01 0.02 0.03 0.01 0.01 0.02 0.01 0.01 0.00 0.00 0.01 0.01 0.02 0.01 0.02 0.02 0.01 0.01 0.01 0.00 0.01 0.01 0.02 0.03 0.04 0.04 0.04 0.04 0.03 0.02 0.01 0.02 0.02 0.02 0.03 0.04 0.05 0.07 0.07 0.06 0.05
0.00 0.00 0.01 0.02 0.04 0.03 0.01 0.01 0.02 0.02 0.01 0.01 0.02 0.02 0.03 0.03 0.02 0.02 0.01 0.01 0.01 0.01 0.01 0.01 0.01 0.03 0.04 0.03 0.03 0.02 0.02 0.02 0.01 0.01 0.01 0.02 0.02 0.02 0.03 0.04 0.06 0.07 0.08
0.00 0.00 0.00 0.02 0.04 0.03 0.03 0.02 0.03 0.03 0.02 0.03 0.03 0.03 0.04 0.03 0.02 0.02 0.02 0.02 0.02 0.02 0.01 0.01 0.01 0.02 0.03 0.04 0.03 0.02 0.03 0.03 0.02 0.01 0.01 0.02 0.02 0.03 0.05 0.06 0.06 0.06 0.06
0.00 0.00 0.00 0.01 0.03 0.02 0.02 0.03 0.05 0.05 0.04 0.05 0.05 0.04 0.04 0.04 0.04 0.05 0.05 0.06 0.05 0.04 0.03 0.03 0.02 0.03 0.04 0.06 0.06 0.05 0.04 0.03 0.03 0.02 0.02 0.03 0.02 0.02 0.03 0.03 0.04 0.06 0.07
0.00 0.00 0.00 0.01 0.01 0.02 0.02 0.05 0.07 0.09 0.07 0.05 0.05 0.05 0.05 0.04 0.03 0.03 0.04 0.04 0.05 0.06 0.05 0.05 0.05 0.04 0.03 0.04 0.06 0.06 0.05 0.04 0.04 0.04 0.03 0.03 0.02 0.02 0.01 0.01 0.03 0.04 0.04
0.00 0.00 0.00 0.01 0.01 0.01 0.03 0.04 0.07 0.09 0.09 0.07 0.05 0.04 0.04 0.05 0.04 0.05 0.04 0.04 0.05 0.04 0.04 0.04 0.03 0.02 0.01 0.02 0.02 0.03 0.04 0.04 0.05 0.06 0.04 0.03 0.02 0.02 0.02 0.02 0.02 0.03 0.03
0.00 0.00 0.00 0.01 0.02 0.03 0.04 0.05 0.05 0.06 0.09 0.11 0.08 0.05 0.04 0.04 0.04 0.04 0.04 0.05 0.06 0.06 0.05 0.03 0.02 0.01 0.00 0.01 0.01 0.02 0.02 0.03 0.03 0.05 0.05 0.02 0.01 0.01 0.02 0.03 0.02 0.03 0.04
0.01 0.01 0.01 0.03 0.04 0.04 0.05 0.06 0.06 0.07 0.07 0.07 0.07 0.06 0.05 0.04 0.04 0.03 0.03 0.05 0.06 0.06 0.07 0.05 0.03 0.02 0.01 0.01 0.01 0.01 0.02 0.03 0.03 0.03 0.03 0.03 0.01 0.01 0.02 0.03 0.03 0.03 0.03
0.01 0.02 0.03 0.03 0.04 0.05 0.07 0.09 0.09 0.08 0.07 0.07 0.07 0.07 0.05 0.05 0.05 0.05 0.05 0.06 0.07 0.07 0.06 0.06 0.05 0.03 0.03 0.02 0.01 0.02 0.02 0.03 0.02 0.03 0.03 0.04 0.03 0.03 0.02 0.02 0.03 0.02 0.02
0.01 0.03 0.04 0.05 0.06 0.06 0.06 0.06 0.07 0.08 0.09 0.09 0.08 0.06 0.05 0.05 0.05 0.05 0.05 0.05 0.07 0.08 0.09 0.08 0.06 0.04 0.03 0.04 0.04 0.03 0.02 0.02 0.02 0.02 0.02 0.03 0.03 0.02 0.01 0.02 0.02 0.02 0.03
0.03 0.04 0.05 0.05 0.06 0.06 0.05 0.05 0.06 0.08 0.08 0.08 0.09 0.09 0.08 0.07 0.07 0.07 0.07 0.07 0.09 0.10 0.11 0.11 0.09 0.07 0.06 0.06 0.06 0.03 0.02 0.01 0.01 0.02 0.01 0.02 0.02 0.02 0.02 0.02 0.03 0.02 0.02
0.04 0.05 0.05 0.04 0.04 0.04 0.05 0.05 0.05 0.09 0.12 0.11 0.11 0.13 0.11 0.10 0.09 0.08 0.08 0.10 0.11 0.12 0.11 0.10 0.10 0.09 0.07 0.06 0.04 0.03 0.02 0.02 0.01 0.01 0.01 0.02 0.02 0.02 0.03 0.03 0.02 0.02 0.01
0.04 0.03 0.04 0.04 0.06 0.06 0.06 0.06 0.06 0.06 0.08 0.10 0.12 0.14 0.16 0.12 0.09 0.08 0.06 0.06 0.06 0.08 0.10 0.10 0.10 0.10 0.09 0.08 0.07 0.05 0.04 0.03 0.02 0.02 0.02 0.02 0.02 0.02 0.02 0.02 0.02 0.02 0.02
0.08 0.04 0.04 0.04 0.06 0.06 0.07 0.08 0.10 0.08 0.05 0.05 0.07 0.10 0.14 0.11 0.09 0.08 0.08 0.08 0.06 0.05 0.04 0.04 0.05 0.06 0.06 0.05 0.05 0.04 0.04 0.04 0.05 0.05 0.04 0.04 0.04 0.03 0.03 0.03 0.03 0.03 0.03
0.04 0.04 0.04 0.07 0.09 0.08 0.08 0.08 0.09 0.10 0.09 0.06 0.06 0.07 0.08 0.09 0.09 0.07 0.05 0.05 0.05 0.04 0.03 0.03 0.02 0.02 0.02 0.02 0.02 0.04 0.05 0.05 0.05 0.06 0.06 0.06 0.05 0.04 0.03 0.03 0.03 0.03 0.02
0.02 0.03 0.03 0.07 0.10 0.09 0.09 0.09 0.08 0.09 0.10 0.08 0.06 0.05 0.06 0.07 0.08 0.07 0.06 0.04 0.03 0.03 0.03 0.03 0.02 0.02 0.02 0.03 0.03 0.04 0.05 0.05 0.05 0.05 0.04 0.03 0.03 0.02 0.02 0.02 0.01 0.01 0.01
0.01 0.01 0.02 0.03 0.04 0.05 0.06 0.08 0.07 0.05 0.05 0.06 0.05 0.05 0.05 0.05 0.05 0.05 0.05 0.05 0.04 0.04 0.04 0.04 0.04 0.03 0.03 0.04 0.03 0.03 0.04 0.05 0.05 0.03 0.02 0.01 0.01 0.01 0.01 0.01 0.01 0.01 0.01
MSLP
1009.86 1010.21 1010.61 1011.04 1011.50 1011.97 1012.46 1012.98 1013.52 1014.07 1014.61 1015.11 1015.54 1015.87 1016.08 1016.19 1016.21 1016.17 1016.11 1016.07 1016.05 1016.07 1016.12 1016.17 1016.20 1016.20 1016.15 1016.05 1015.91 1015.77 1015.64 1015.54 1015.46 1015.41 1015.37 1015.31 1015.21 1015.05 1014.83 1014.57 1014.29 1014.02 1013.79
1009.47 1009.89 1010.35 1010.82 1011.29 1011.76 1012.24 1012.75 1013.29 1013.87 1014.46 1015.02 1015.51 1015.90 1016.16 1016.29 1016.31 1016.26 1016.18 1016.11 1016.08 1016.09 1016.13 1016.19 1016.24 1016.25 1016.21 1016.13 1016.02 1015.90 1015.81 1015.75 1015.74 1015.77 1015.80 1015.82 1015.78 1015.67 1015.48 1015.22 1014.92 1014.61 1014.32
1008.95 1009.46 1010.00 1010.53 1011.03 1011.51 1011.99 1012.50 1013.06 1013.66 1014.28 1014.89 1015.44 1015.88 1016.20 1016.36 1016.41 1016.37 1016.28 1016.20 1016.15 1016.15 1016.19 1016.25 1016.29 1016.31 1016.28 1016.20 1016.10 1016.00 1015.94 1015.93 1015.98 1016.08 1016.20 1016.30 1016.35 1016.31 1016.16 1015.93 1015.63 1015.29 1014.96
1008.35 1008.95 1009.57 1010.17 1010.72 1011.22 1011.71 1012.22 1012.78 1013.40 1014.05 1014.70 1015.30 1015.80 1016.16 1016.38 1016.46 1016.44 1016.37 1016.29 1016.25 1016.25 1016.28 1016.34 1016.39 1016.40 1016.37 1016.29 1016.19 1016.10 1016.06 1016.09 1016.19 1016.36 1016.55 1016.74 1016.87 1016.90 1016.82 1016.62 1016.34 1016.00 1015.63
1007.72 1008.39 1009.09 1009.75 1010.35 1010.88 1011.38 1011.90 1012.46 1013.08 1013.75 1014.43 1015.06 1015.61 1016.03 1016.29 1016.42 1016.45 1016.41 1016.37 1016.34 1016.35 1016.39 1016.45 1016.50 1016.51 1016.48 1016.40 1016.30 1016.22 1016.19 1016.24 1016.38 1016.59 1016.85 1017.10 1017.30 1017.40 1017.38 1017.23 1016.98 1016.65 1016.28
1007.12 1007.85 1008.61 1009.31 1009.94 1010.49 1011.00 1011.51 1012.07 1012.68 1013.36 1014.05 1014.72 1015.30 1015.77 1016.09 1016.28 1016.36 1016.37 1016.37 1016.38 1016.41 1016.48 1016.55 1016.61 1016.62 1016.59 1016.52 1016.42 1016.34 1016.32 1016.38 1016.54 1016.78 1017.07 1017.36 1017.61 1017.77 1017.80 1017.71 1017.49 1017.19 1016.82
1006.62 1007.37 1008.15 1008.88 1009.53 1010.08 1010.59 1011.08 1011.62 1012.23 1012.89 1013.59 1014.27 1014.89 1015.40 1015.77 1016.02 1016.15 1016.23 1016.27 1016.32 1016.39 1016.49 1016.58 1016.66 1016.69 1016.67 1016.61 1016.52 1016.45 1016.43 1016.49 1016.64 1016.89 1017.19 1017.50 1017.78 1017.98 1018.06 1018.01 1017.85 1017.58 1017.24
1006.26 1007.00 1007.77 1008.49 1009.13 1009.67 1010.16 1010.63 1011.15 1011.73 1012.39 1013.08 1013.77 1014.40 1014.94 1015.36 1015.65 1015.84 1015.97 1016.06 1016.16 1016.27 1016.39 1016.52 1016.62 1016.68 1016.69 1016.64 1016.57 1016.50 1016.48 1016.53 1016.68 1016.91 1017.20 1017.51 1017.80 1018.02 1018.14 1018.15 1018.03 1017.82 1017.53
1006.05 1006.75 1007.49 1008.17 1008.77 1009.28 1009.74 1010.20 1010.69 1011.26 1011.89 1012.57 1013.26 1013.90 1014.46 1014.90 1015.23 1015.46 1015.62 1015.75 1015.88 1016.03 1016.19 1016.34 1016.47 1016.56 1016.59 1016.58 1016.53 1016.47 1016.46 1016.50 1016.63 1016.83 1017.10 1017.40 1017.69 1017.93 1018.08 1018.13 1018.08 1017.93 1017.70
1005.99 1006.63 1007.30 1007.92 1008.47 1008.94 1009.37 1009.80 1010.27 1010.82 1011.44 1012.11 1012.79 1013.43 1013.99 1014.44 1014.78 1015.04 1015.22 1015.38 1015.53 1015.70 1015.88 1016.06 1016.22 1016.34 1016.40 1016.41 1016.39 1016.35 1016.34 1016.38 1016.49 1016.67 1016.91 1017.19 1017.47 1017.72 1017.90 1018.00 1018.01 1017.94 1017.78
1006.06 1006.62 1007.20 1007.74 1008.22 1008.64 1009.03 1009.45 1009.91 1010.46 1011.07 1011.73 1012.40 1013.02 1013.58 1014.02 1014.37 1014.62 1014.82 1014.98 1015.15 1015.33 1015.52 1015.71 1015.89 1016.04 1016.13 1016.17 1016.17 1016.15 1016.14 1016.18 1016.27 1016.43 1016.65 1016.91 1017.17 1017.43 1017.64 1017.78 1017.86 1017.86 1017.78
1006.23 1006.69 1007.16 1007.60 1008.00 1008.37 1008.73 1009.13 1009.59 1010.14 1010.75 1011.40 1012.06 1012.67 1013.21 1013.64 1013.97 1014.22 1014.41 1014.58 1014.75 1014.94 1015.14 1015.35 1015.54 1015.70 1015.82 1015.88 1015.90 1015.90 1015.90 1015.93 1016.01 1016.14 1016.34 1016.58 1016.84 1017.09 1017.32 1017.51 1017.64 1017.70 1017.71
1006.46 1006.80 1007.15 1007.48 1007.80 1008.10 1008.43 1008.81 1009.28 1009.82 1010.43 1011.08 1011.72 1012.31 1012.83 1013.25 1013.57 1013.81 1014.01 1014.18 1014.36 1014.56 1014.78 1015.00 1015.21 1015.39 1015.51 1015.59 1015.62 1015.63 1015.63 1015.65 1015.72 1015.83 1016.01 1016.22 1016.47 1016.73 1016.97 1017.18 1017.35 1017.47 1017.54
1006.69 1006.91 1007.14 1007.35 1007.57 1007.81 1008.09 1008.46 1008.92 1009.46 1010.06 1010.69 1011.31 1011.88 1012.37 1012.77 1013.09 1013.34 1013.55 1013.75 1013.96 1014.18 1014.43 1014.67 1014.90 1015.10 1015.24 1015.32 1015.36 1015.36 1015.35 1015.36 1015.41 1015.51 1015.66 1015.85 1016.08 1016.33 1016.57 1016.80 1017.00 1017.16 1017.27
1006.91 1007.00 1007.09 1007.18 1007.30 1007.46 1007.70 1008.03 1008.46 1008.98 1009.56 1010.16 1010.75 1011.28 1011.75 1012.14 1012.46 1012.73 1012.98 1013.22 1013.49 1013.77 1014.06 1014.35 1014.61 1014.82 1014.97 1015.06 1015.09 1015.09 1015.07 1015.06 1015.08 1015.16 1015.28 1015.45 1015.66 1015.90 1016.13 1016.36 1016.57 1016.75 1016.89
1007.09 1007.05 1007.00 1006.97 1006.98 1007.07 1007.24 1007.52 1007.91 1008.38 1008.91 1009.45 1009.99 1010.48 1010.92 1011.29 1011.63 1011.94 1012.24 1012.56 1012.90 1013.26 1013.62 1013.97 1014.27 1014.52 1014.68 1014.78 1014.80 1014.78 1014.74 1014.71 1014.71 1014.76 1014.86 1015.02 1015.21 1015.42 1015.65 1015.86 1016.07 1016.25 1016.40
1007.22 1007.06 1006.89 1006.74 1006.65 1006.64 1006.74 1006.95 1007.26 1007.66 1008.10 1008.57 1009.03 1009.46 1009.85 1010.22 1010.57 1010.92 1011.30 1011.70 1012.14 1012.60 1013.05 1013.48 1013.84 1014.12 1014.31 1014.41 1014.43 1014.40 1014.34 1014.29 1014.28 1014.31 1014.39 1014.52 1014.70 1014.90 1015.11 1015.32 1015.51 1015.69 1015.85
1007.31 1007.04 1006.76 1006.51 1006.33 1006.23 1006.24 1006.36 1006.58 1006.87 1007.21 1007.57 1007.92 1008.27 1008.61 1008.95 1009.31 1009.71 1010.16 1010.66 1011.20 1011.76 1012.31 1012.82 1013.25 1013.57 1013.79 1013.90 1013.93 1013.90 1013.83 1013.77 1013.75 1013.77 1013.85 1013.97 1014.14 1014.33 1014.54 1014.74 1014.93 1015.10 1015.26
1007.35 1007.00 1006.65 1006.32 1006.05 1005.87 1005.80 1005.82 1005.93 1006.09 1006.30 1006.53 1006.77 1007.02 1007.28 1007.58 1007.94 1008.37 1008.88 1009.46 1010.09 1010.75 1011.39 1011.97 1012.47 1012.84 1013.10 1013.23 1013.27 1013.25 1013.19 1013.14 1013.13 1013.16 1013.24 1013.38 1013.55 1013.75 1013.95 1014.15 1014.34 1014.51 1014.67
1007.37 1006.97 1006.56 1006.18 1005.86 1005.61 1005.46 1005.38 1005.37 1005.41 1005.48 1005.57 1005.68 1005.81 1005.99 1006.24 1006.57 1007.01 1007.55 1008.19 1008.89 1009.61 1010.32 1010.97 1011.52 1011.94 1012.23 1012.40 1012.47 1012.47 1012.44 1012.42 1012.43 1012.49 1012.60 1012.76 1012.95 1013.17 1013.38 1013.59 1013.78 1013.96 1014.12
1007.37 1006.95 1006.52 1006.11 1005.76 1005.46 1005.24 1005.08 1004.96 1004.88 1004.82 1004.77 1004.74 1004.76 1004.84 1005.02 1005.31 1005.73 1006.27 1006.92 1007.65 1008.42 1009.17 1009.85 1010.44 1010.90 1011.23 1011.44 1011.55 1011.60 1011.62 1011.65 1011.70 1011.80 1011.95 1012.14 1012.36 1012.59 1012.82 1013.04 1013.24 1013.42 1013.59
1007.35 1006.94 1006.51 1006.11 1005.74 1005.42 1005.15 1004.92 1004.72 1004.53 1004.34 1004.17 1004.02 1003.93 1003.91 1004.01 1004.24 1004.61 1005.12 1005.76 1006.48 1007.24 1007.99 1008.69 1009.30 1009.79 1010.16 1010.42 1010.59 1010.69 1010.78 1010.86 1010.97 1011.12 1011.31 1011.54 1011.78 1012.04 1012.28 1012.51 1012.71 1012.90 1013.07
1007.32 1006.93 1006.53 1006.15 1005.79 1005.46 1005.17 1004.88 1004.61 1004.33 1004.05 1003.78 1003.53 1003.34 1003.24 1003.25 1003.41 1003.71 1004.17 1004.75 1005.42 1006.15 1006.88 1007.56 1008.17 1008.68 1009.08 1009.39 1009.62 1009.79 1009.95 1010.10 1010.27 1010.47 1010.70 1010.95 1011.22 1011.47 1011.72 1011.94 1012.15 1012.33 1012.51
1007.29 1006.93 1006.57 1006.22 1005.88 1005.55 1005.24 1004.93 1004.60 1004.26 1003.92 1003.57 1003.25 1002.98 1002.79 1002.73 1002.81 1003.04 1003.41 1003.92 1004.52 1005.18 1005.86 1006.51 1007.10 1007.61 1008.05 1008.40 1008.69 1008.93 1009.15 1009.37 1009.59 1009.83 1010.09 1010.35 1010.62 1010.87 1011.10 1011.31 1011.51 1011.69 1011.86
1007.25 1006.95 1006.62 1006.30 1005.98 1005.66 1005.34 1005.00 1004.64 1004.26 1003.87 1003.47 1003.10 1002.77 1002.53 1002.40 1002.41 1002.56 1002.85 1003.26 1003.77 1004.34 1004.95 1005.54 1006.11 1006.62 1007.06 1007.45 1007.79 1008.09 1008.38 1008.64 1008.91 1009.17 1009.44 1009.70 1009.94 1010.17 1010.38 1010.57 1010.75 1010.93 1011.10
1007.24 1006.97 1006.68 1006.38 1006.07 1005.76 1005.42 1005.07 1004.69 1004.28 1003.85 1003.43 1003.02 1002.66 1002.38 1002.20 1002.14 1002.22 1002.41 1002.73 1003.14 1003.61 1004.13 1004.66 1005.18 1005.66 1006.11 1006.53 1006.90 1007.25 1007.57 1007.87 1008.15 1008.43 1008.69 1008.92 1009.14 1009.34 1009.53 1009.70 1009.87 1010.04 1010.23
Thickness
5795 5794 5793 5792 5790 5788 5785 5783 5781 5780 5778 5776 5773 5771 5770 5770 5770 5770 5770 5769 5768 5766 5764 5762 5761 5759 5758 5756 5755 5753 5750 5748 5747 5744 5741 5741 5742 5742 5741 5740 5739 5738 5737
5792 5793 5793 5792 5790 5788 5787 5785 5783 5782 5780 5778 5775 5774 5772 5771 5770 5770 5770 5769 5767 5766 5764 5763 5761 5759 5757 5755 5754 5752 5749 5747 5746 5742 5737 5734 5735 5738 5739 5738 5736 5735 5734
5794 5794 5793 5792 5791 5790 5789 5788 5785 5783 5781 5779 5776 5774 5771 5770 5769 5768 5768 5768 5767 5766 5765 5763 5761 5759 5757 5755 5753 5752 5749 5745 5744 5743 5738 5732 5728 5730 5733 5734 5733 5732 5731
5799 5797 5796 5794 5793 5793 5792 5790 5787 5785 5782 5780 5776 5772 5768 5766 5766 5767 5767 5768 5767 5766 5765 5763 5761 5759 5757 5755 5754 5752 5749 5746 5742 5741 5740 5738 5735 5729 5726 5729 5730 5730 5728
5804 5801 5800 5799 5798 5796 5793 5791 5788 5785 5783 5781 5777 5774 5770 5769 5768 5767 5767 5766 5767 5766 5765 5763 5761 5759 5757 5755 5754 5752 5749 5747 5744 5741 5739 5736 5733 5731 5726 5723 5725 5726 5727
5807 5805 5804 5801 5798 5797 5794 5792 5788 5785 5784 5781 5779 5775 5772 5770 5767 5765 5765 5764 5764 5765 5764 5763 5761 5759 5757 5755 5753 5751 5749 5747 5744 5742 5740 5737 5734 5730 5727 5723 5722 5722 5724
5807 5804 5802 5800 5799 5797 5795 5792 5788 5785 5784 5782 5780 5777 5775 5772 5769 5766 5765 5763 5762 5763 5763 5762 5761 5759 5757 5756 5753 5751 5749 5746 5744 5741 5740 5738 5736 5734 5730 5725 5721 5719 5720
5807 5806 5805 5803 5801 5799 5796 5794 5790 5787 5785 5782 5780 5778 5776 5773 5771 5768 5767 5764 5763 5763 5763 5762 5761 5759 5758 5756 5753 5751 5748 5746 5743 5742 5740 5738 5736 5734 5731 5727 5722 5717 5716
5807 5806 5806 5804 5802 5800 5798 5795 5791 5788 5786 5784 5781 5779 5776 5774 5772 5770 5768 5766 5765 5764 5763 5761 5760 5758 5757 5755 5752 5749 5747 5745 5742 5740 5738 5737 5735 5733 5731 5728 5724 5719 5714
5805 5805 5804 5804 5802 5801 5799 5796 5793 5790 5787 5784 5782 5780 5777 5775 5773 5770 5767 5766 5765 5763 5761 5760 5758 5756 5755 5753 5750 5747 5746 5743 5741 5739 5736 5734 5733 5731 5729 5726 5724 5721 5716
5803 5802 5802 5802 5801 5800 5798 5794 5791 5788 5785 5783 5781 5779 5777 5775 5773 5770 5768 5766 5764 5762 5760 5758 5755 5753 5752 5750 5748 5745 5743 5741 5739 5737 5735 5732 5731 5729 5727 5725 5723 5720 5717
5803 5802 5800 5799 5797 5796 5794 5792 5789 5786 5784 5783 5780 5778 5776 5773 5771 5769 5767 5765 5762 5760 5758 5755 5753 5751 5750 5748 5746 5743 5742 5739 5736 5734 5732 5730 5729 5727 5725 5723 5721 5718 5716
5800 5799 5796 5795 5793 5792 5791 5789 5788 5786 5784 5781 5777 5775 5773 5771 5769 5767 5766 5763 5761 5758 5755 5752 5750 5748 5747 5745 5743 5741 5739 5737 5734 5732 5730 5728 5726 5724 5722 5720 5718 5716 5714
5796 5794 5792 5791 5790 5789 5788 5787 5785 5784 5781 5777 5774 5772 5771 5769 5767 5765 5763 5761 5758 5755 5752 5750 5748 5746 5744 5742 5740 5738 5736 5733 5731 5730 5728 5726 5724 5722 5720 5717 5715 5713 5709
5790 5789 5787 5785 5785 5784 5784 5783 5781 5780 5777 5772 5770 5769 5768 5767 5765 5762 5760 5758 5755 5753 5750 5747 5745 5743 5741 5739 5737 5735 5732 5729 5727 5725 5724 5723 5721 5719 5717 5715 5711 5708 5705
5787 5786 5784 5781 5780 5780 5779 5777 5776 5775 5772 5768 5766 5765 5763 5762 5760 5758 5755 5753 5751 5748 5745 5743 5740 5738 5738 5736 5733 5731 5728 5725 5722 5720 5719 5718 5717 5715 5713 5711 5708 5705 5702
5782 5781 5780 5779 5777 5777 5776 5773 5773 5771 5767 5764 5762 5761 5759 5757 5755 5753 5749 5747 5745 5743 5740 5738 5736 5734 5733 5732 5729 5727 5724 5721 5718 5715 5714 5713 5712 5709 5707 5705 5703 5700 5698
5779 5778 5777 5775 5775 5774 5772 5770 5769 5766 5762 5759 5757 5756 5755 5752 5750 5747 5744 5742 5740 5738 5735 5733 5731 5729 5728 5726 5724 5721 5718 5715 5713 5711 5709 5706 5704 5703 5700 5698 5696 5694 5693
5776 5775 5774 5773 5772 5771 5769 5765 5762 5760 5756 5753 5753 5752 5751 5748 5745 5742 5740 5737 5734 5732 5730 5728 5726 5724 5722 5721 5718 5715 5712 5709 5707 5705 5703 5701 5699 5696 5694 5691 5688 5687 5686
5771 5770 5769 5768 5766 5765 5764 5760 5755 5752 5750 5749 5748 5747 5745 5742 5740 5737 5735 5733 5730 5727 5725 5722 5720 5718 5716 5714 5711 5708 5705 5702 5700 5698 5696 5695 5692 5690 5687 5684 5682 5680 5679
5764 5764 5763 5761 5760 5758 5755 5752 5749 5746 5746 5744 5742 5740 5739 5737 5734 5732 5729 5727 5724 5720 5718 5716 5714 5712 5710 5708 5705 5702 5699 5695 5693 5690 5688 5687 5685 5683 5680 5678 5675 5674 5672
5756 5755 5754 5752 5751 5750 5747 5744 5742 5742 5740 5738 5736 5735 5733 5732 5730 5726 5722 5720 5717 5713 5710 5707 5705 5704 5702 5700 5698 5696 5693 5690 5686 5684 5682 5680 5678 5676 5674 5671 5669 5666 5664
5747 5746 5745 5743 5742 5740 5739 5736 5735 5735 5733 5730 5728 5727 5726 5724 5722 5719 5715 5712 5709 5706 5703 5700 5697 5696 5695 5693 5691 5689 5686 5683 5679 5677 5675 5673 5670 5668 5666 5664 5661 5659 5657
5738 5737 5735 5733 5731 5731 5730 5729 5728 5726 5724 5722 5719 5718 5717 5715 5713 5711 5709 5705 5702 5699 5696 5693 5691 5689 5688 5686 5685 5681 5678 5675 5672 5669 5667 5665 5662 5660 5658 5656 5653 5651 5649
5730 5729 5727 5724 5724 5723 5722 5721 5719 5717 5715 5713 5710 5709 5708 5706 5704 5702 5701 5699 5697 5694 5691 5688 5686 5683 5681 5680 5678 5675 5671 5668 5665 5662 5659 5657 5655 5653 5650 5648 5645 5642 5640
5720 5719 5717 5715 5715 5714 5713 5712 5711 5709 5707 5703 5701 5699 5698 5696 5695 5692 5690 5691 5689 5687 5685 5683 5680 5678 5676 5673 5670 5667 5664 5660 5657 5654 5652 5649 5647 5645 5643 5640 5638 5635 5633